Weather History for OAHR - August, 2014

Change the Weather History Date:

Monday, August 11, 2014

  Actual Average Record
Temperature  
Mean Temperature 86 °F -  
Max Temperature 98 °F 93 °F - ()
Min Temperature 75 °F 63 °F - ()
Cooling Degree Days 22    
Growing Degree Days 36 (Base 50)    
Moisture  
Dew Point 25 °F    
Average Humidity 11    
Maximum Humidity 18    
Minimum Humidity 6    
Precipitation  
Precipitation 0.00 in 0.00 in - ()
Sea Level Pressure  
Sea Level Pressure 29.83 in    
Wind  
Wind Speed 6 mph ()    
Max Wind Speed 18 mph    
Max Gust Speed -    
T = Trace of Precipitation, MM = Missing Value Source: Averaged Metar Reports

Daily Weather History Graph

Daily Weather History Graph

Search for Another Location

Airport or City:

Trip Planner

Search our weather history database for the weather conditions in past years. The results will help you decide how hot, cold, wet, or windy it might be!

Date:

Astronomy

Aug. 11, 2014 Rise Set
Actual Time 5:39 AM AFT 7:13 PM AFT
Civil Twilight 5:12 AM AFT 7:39 PM AFT
Nautical Twilight 4:40 AM AFT 8:11 PM AFT
Astronomical Twilight 4:06 AM AFT 8:45 PM AFT
Moon 7:29 PM AFT (8/11) 6:09 AM AFT (8/11)
Length of Visible Light 14h 27m
Length of Day
13h 33m
Full, 100% of the Moon is Illuminated
Aug 11
Full
Aug 17
Last Quarter
Aug 25
New
Sep 2
First Quarter
Sep 9
Full

Hourly Weather History & Observations

Time (AFT) Temp. Dew Point Humidity Pressure Visibility Wind Dir Wind Speed Gust Speed Precip Events Conditions
12:24 AM 80.6 °F 24.8 °F 13% 29.86 in - NNE 4.6 mph - N/A   Clear
1:24 AM 78.8 °F 24.8 °F 14% 29.86 in - Variable 3.5 mph - N/A   Clear
2:24 AM 78.8 °F 24.8 °F 14% 29.83 in - North 8.1 mph - N/A   Clear
3:24 AM 77.0 °F 26.6 °F 16% 29.86 in - NNE 3.5 mph - N/A   Clear
4:24 AM 75.2 °F 26.6 °F 17% 29.83 in - SSW 1.2 mph - N/A   Clear
5:24 AM 75.2 °F 28.4 °F 18% 29.86 in - SSW 1.2 mph - N/A   Clear
6:24 AM 75.2 °F 26.6 °F 17% 29.86 in - SSE 3.5 mph - N/A   Clear
7:25 AM 77.0 °F 24.8 °F 14% 29.86 in - SSE 3.5 mph - N/A   Clear
8:24 AM 84.2 °F 24.8 °F 11% 29.86 in - North 2.3 mph - N/A   Clear
9:25 AM 87.8 °F 26.6 °F 11% 29.86 in - NNE 6.9 mph - N/A   Clear
10:25 AM 91.4 °F 26.6 °F 10% 29.86 in - East 6.9 mph - N/A   Clear
11:25 AM 95.0 °F 24.8 °F 8% 29.86 in - North 10.4 mph - N/A   Clear
12:25 PM 98.6 °F 23.0 °F 7% 29.83 in - NNE 15.0 mph - N/A   Clear
2:25 PM 98.6 °F 21.2 °F 6% 29.77 in - North 15.0 mph - N/A   Clear
3:25 PM 98.6 °F 23.0 °F 7% 29.77 in - North 17.3 mph - N/A   Clear
4:24 PM 98.6 °F 23.0 °F 7% 29.77 in - North 18.4 mph - N/A   Clear
5:25 PM 95.0 °F 23.0 °F 8% 29.77 in - North 15.0 mph - N/A   Clear
6:24 PM 93.2 °F 21.2 °F 7% 29.77 in - North 18.4 mph - N/A   Clear
7:24 PM 89.6 °F 23.0 °F 9% 29.80 in - North 13.8 mph - N/A   Clear
8:24 PM 87.8 °F 24.8 °F 10% 29.80 in - North 8.1 mph - N/A   Clear
9:24 PM 86.0 °F 24.8 °F 11% 29.83 in - North 6.9 mph - N/A   Clear
10:24 PM 84.2 °F 24.8 °F 11% 29.83 in - North 8.1 mph - N/A   Clear
11:24 PM 84.2 °F 24.8 °F 11% 29.83 in - North 6.9 mph - N/A   Clear